Location: ????????
(55.4000°N, 39.1167°E)
Time: 08:03:50
(UTC+00:00)

Cosmos 1703 - Pass Details

Date: 19 May 2025
Orbit: 444 x 453 km, 82.5° (Epoch: 22 June)

Event Time Altitude Azimuth Distance (km) Brightness Sun altitude
Exits shadow 23:48:34 - 186° (S) 1,706 5.3 -8.3°
Reaches altitude 10° 23:48:52 10° 186° (S) 1,582 5.1 -8.3°
Maximum altitude 23:52:18 77° 100° (E) 471 3.0 -8.0°
Drops below altitude 10° 23:55:48 10° 14° (NNE) 1,603 7.0 -7.7°
Sets 23:57:53 0° 13° (NNE) 2,484 8.1 -7.5°
